Wind_Speed
10 10 9 9 9 9 8 8 8 7 6 6 6 6 7 7 8 9 9 9 10 11 11 11 12 12 11 11 11 12 14 14 14 15 16 16 16 16 17 18 18 19 19
11 11 10 10 10 10 9 9 9 8 8 8 7 6 6 6 7 8 8 8 8 9 10 11 10 11 11 10 11 12 13 14 14 14 15 16 16 17 18 18 18 19 20
11 11 11 11 11 11 10 9 9 9 9 9 8 7 7 7 7 7 8 8 7 7 8 9 11 11 11 11 11 11 12 12 12 13 14 14 15 16 17 18 18 18 19
11 11 11 11 12 11 10 10 10 10 10 10 9 8 8 8 8 8 7 7 7 7 8 9 10 10 10 10 10 11 12 12 13 13 14 14 15 16 16 17 18 19 19
12 12 12 12 12 12 11 11 10 11 11 10 9 9 9 9 8 8 8 8 7 8 9 9 9 10 11 11 11 12 12 13 14 14 15 15 16 17 17 18 18 19 19
12 12 12 12 12 12 13 12 12 11 11 11 11 10 10 10 10 10 10 10 9 9 10 10 11 11 12 12 13 14 14 15 15 15 15 16 16 17 18 18 19 19 20
14 14 13 13 13 13 13 14 14 13 12 12 12 12 12 11 12 12 12 12 12 12 12 12 12 13 14 14 15 16 16 16 16 16 17 18 18 18 19 19 20 20 20
15 15 15 15 15 15 15 15 15 15 15 14 14 14 14 13 13 13 13 14 14 14 14 14 15 15 15 15 16 16 16 17 17 17 18 18 19 19 20 20 20 20 21
16 15 16 16 17 17 17 17 17 16 16 16 16 16 16 15 15 16 15 15 15 15 15 16 16 16 17 17 17 16 16 17 18 18 19 19 19 20 21 21 20 20 20
17 17 17 17 18 18 18 18 18 18 17 18 17 17 17 17 17 17 17 17 17 17 17 17 17 18 18 18 18 17 17 18 18 19 20 20 20 20 21 21 21 21 21
18 18 18 18 18 19 19 19 19 19 19 19 19 18 18 18 18 18 18 18 18 18 18 18 19 19 19 18 18 18 18 19 19 19 20 20 21 22 22 23 23 23 22
18 18 19 18 18 19 19 19 20 20 20 19 19 19 19 19 18 18 18 19 19 19 20 20 20 19 19 18 18 19 19 20 20 20 21 21 21 22 23 23 23 22 22
19 19 18 19 19 19 19 19 19 19 20 20 20 20 20 20 20 20 20 20 21 21 21 21 20 19 19 19 19 20 20 20 20 20 20 20 21 22 22 23 23 22 22
19 19 19 18 18 18 19 19 19 19 19 19 19 20 20 20 20 20 20 21 21 21 21 20 20 20 21 21 20 20 21 21 21 21 21 21 21 22 22 23 23 23 22
20 20 20 19 18 19 19 20 20 20 20 19 19 19 20 20 20 20 21 22 22 22 21 21 21 21 21 21 21 21 22 22 22 22 22 22 23 23 23 23 23 23 22
21 20 21 21 20 20 20 21 21 21 21 21 21 20 20 20 20 21 21 21 21 21 22 22 22 21 21 22 22 22 23 23 23 23 23 23 23 23 23 23 22 22 23
21 21 20 20 21 21 22 21 21 21 21 20 20 21 21 21 21 21 21 21 21 21 21 21 21 21 21 22 22 23 23 23 23 23 23 23 23 23 23 23 24 24 24
21 20 20 21 21 21 21 20 20 20 20 21 21 21 22 22 22 21 21 21 21 21 21 20 20 20 21 21 22 22 23 23 23 24 23 23 23 24 24 24 25 25 25
20 21 21 20 20 20 20 20 20 20 21 21 21 22 22 21 21 21 21 21 21 20 20 20 21 21 21 22 22 23 23 23 23 23 24 24 24 24 24 24 24 25 26
21 21 21 21 20 21 20 21 21 21 21 21 21 21 21 21 21 21 20 20 21 20 20 20 21 21 22 23 23 23 23 24 24 24 24 24 24 24 25 25 25 26 27
21 21 21 21 21 21 21 22 22 22 22 22 21 21 21 20 20 20 20 20 20 20 20 21 21 22 23 23 23 23 23 24 25 25 25 25 25 25 26 26 26 27 27
19 19 20 20 21 21 21 21 22 21 21 21 20 19 19 19 19 19 19 20 20 20 20 20 21 21 22 22 23 23 24 24 24 25 25 25 25 26 26 26 26 26 27
19 19 19 20 20 20 20 20 20 19 19 19 20 20 20 19 19 19 19 19 20 20 21 21 21 22 23 23 24 24 24 24 25 25 25 25 26 26 26 26 27 27 28
19 19 20 20 20 20 20 20 20 20 20 20 20 20 20 20 20 20 20 21 21 21 21 22 22 23 23 23 24 24 24 25 25 26 25 25 25 25 26 26 27 27 28
20 20 20 21 21 21 21 21 21 21 21 21 21 21 21 21 21 21 22 22 22 23 23 23 23 23 24 24 24 25 25 25 26 26 26 26 26 26 27 27 28 28 28
20 21 21 22 22 22 22 22 22 22 22 22 21 21 21 22 22 23 23 23 24 24 24 24 24 24 25 25 25 25 26 26 26 26 27 26 27 27 27 27 27 27 27
Wind_Direction
274 268 269 265 266 268 271 273 277 278 284 289 289 291 282 276 269 265 266 268 266 263 262 264 266 266 269 270 268 262 259 260 263 265 268 269 270 268 269 272 273 274 277
276 267 264 263 263 266 268 271 275 277 279 283 284 287 286 283 279 271 269 272 272 262 263 265 269 270 266 267 266 264 261 261 264 268 269 268 270 271 273 272 275 278 278
278 265 261 261 262 264 267 268 272 275 274 277 279 275 278 279 279 280 280 275 273 273 268 264 267 270 267 268 269 267 264 267 270 272 273 274 275 277 278 277 280 283 284
271 265 261 261 261 264 263 267 271 273 272 273 277 274 272 273 275 277 279 276 272 272 273 272 270 270 270 272 272 271 271 271 272 274 275 278 279 280 280 281 281 282 283
265 260 260 261 263 263 265 268 269 272 270 270 273 277 273 271 271 270 271 275 276 272 269 273 274 274 275 277 277 277 278 278 277 277 279 281 282 282 282 285 285 284 283
263 259 259 260 262 264 265 267 270 272 271 269 271 276 273 270 268 268 271 272 271 270 271 274 276 274 274 276 277 278 282 283 282 282 285 287 288 287 286 287 289 287 286
262 259 260 260 261 265 267 269 270 271 270 268 267 269 271 271 268 270 269 269 268 271 274 276 277 277 276 279 279 279 281 283 282 284 286 287 289 290 289 289 290 289 288
264 260 260 261 263 263 265 266 268 268 267 269 268 267 269 270 269 269 267 265 266 270 274 275 278 280 279 280 282 282 281 282 282 283 286 288 289 290 290 290 291 290 290
265 263 261 261 262 261 262 263 263 263 266 268 269 269 268 267 268 267 266 266 267 270 274 276 278 280 280 282 282 282 283 284 283 284 286 288 289 290 291 290 290 290 289
268 266 264 262 262 262 260 261 261 262 265 267 268 269 268 268 266 266 265 267 268 270 274 276 276 278 281 283 283 281 282 284 286 286 287 288 289 291 290 288 288 289 289
269 267 265 263 261 261 260 260 261 262 264 265 265 267 268 268 268 269 267 268 267 269 273 275 276 279 280 281 281 281 283 284 286 287 287 288 290 292 291 288 288 289 290
265 265 266 264 261 261 262 262 261 262 262 262 263 264 268 269 269 268 267 267 269 270 272 274 276 277 277 278 280 282 284 286 287 288 288 289 291 293 293 291 291 290 289
261 263 265 262 262 263 262 262 261 262 262 262 262 263 266 269 267 266 266 267 268 270 273 276 277 277 277 280 282 284 286 288 288 290 291 291 292 292 293 294 293 292 290
259 261 262 262 261 262 263 264 264 263 264 265 263 263 267 269 267 267 270 271 271 273 275 276 277 278 279 280 282 285 287 287 288 289 290 291 292 292 292 292 292 290 289
258 260 261 260 260 261 264 265 265 265 264 264 264 265 268 269 269 269 271 272 274 274 275 276 278 278 278 279 281 283 285 287 288 289 290 291 291 293 292 290 290 290 290
258 260 261 260 260 262 263 264 264 264 264 262 262 264 265 266 268 270 272 274 274 274 275 276 277 279 279 279 281 283 285 285 286 287 289 291 291 292 291 290 290 290 289
259 260 261 260 260 261 262 264 264 264 264 263 263 264 265 267 269 271 273 274 275 275 276 277 278 280 280 281 283 284 285 285 286 288 289 290 290 290 289 289 289 289 290
259 259 260 259 259 261 262 264 265 265 266 265 265 264 265 268 271 272 273 274 275 276 276 277 279 281 282 283 284 285 286 286 287 289 291 291 289 289 289 290 289 290 291
258 258 260 261 260 262 262 263 266 267 266 265 264 264 264 267 270 271 272 273 275 276 277 278 279 281 282 282 283 284 286 287 288 289 291 292 292 290 290 290 290 290 292
257 257 258 258 260 262 262 263 265 267 267 265 264 264 265 266 267 269 272 274 273 274 276 278 280 281 281 281 282 284 286 286 287 288 289 290 290 290 290 290 291 292 293
258 258 257 258 259 261 263 264 265 265 267 267 266 266 265 267 268 268 270 273 273 273 276 279 282 283 283 281 282 284 286 286 286 287 286 287 289 290 290 290 291 292 293
257 257 258 259 261 262 264 265 265 265 265 266 266 268 268 268 268 271 272 273 272 274 277 280 282 283 284 284 285 284 286 287 287 287 286 287 289 290 291 291 291 292 293
253 256 260 262 265 265 265 266 264 262 263 266 268 269 270 270 270 271 273 274 275 277 279 281 283 285 286 285 286 287 288 287 287 287 287 287 288 289 289 290 291 291 293
255 259 262 265 267 267 265 264 262 262 264 265 267 268 268 269 270 271 274 276 276 279 282 284 285 287 287 286 287 288 289 289 289 289 287 288 290 290 291 291 291 292 292
257 259 262 264 267 267 264 262 261 260 262 265 266 267 267 268 270 271 274 275 276 277 279 281 283 285 286 286 287 288 289 290 290 290 288 288 290 292 291 291 291 291 291
260 262 264 266 267 265 261 261 261 261 262 265 267 268 269 271 273 275 276 278 279 279 280 281 284 284 284 286 288 290 291 291 291 290 290 290 291 291 291 291 291 291 291
Height
5821 5821 5821 5822 5822 5823 5822 5823 5822 5822 5821 5821 5820 5819 5818 5818 5817 5817 5816 5816 5816 5815 5815 5815 5814 5814 5814 5814 5814 5814 5814 5815 5815 5815 5814 5814 5814 5814 5814 5813 5812 5811 5811
5818 5819 5819 5819 5820 5820 5820 5820 5820 5820 5819 5818 5818 5817 5816 5815 5815 5814 5814 5813 5813 5812 5812 5812 5812 5812 5811 5811 5811 5811 5811 5810 5811 5811 5810 5810 5810 5809 5809 5808 5807 5806 5805
5815 5815 5816 5817 5817 5817 5817 5817 5817 5817 5816 5816 5815 5815 5814 5813 5813 5812 5812 5811 5811 5810 5810 5810 5810 5809 5809 5808 5808 5808 5808 5808 5807 5807 5806 5806 5805 5805 5804 5803 5802 5801 5799
5811 5812 5812 5813 5814 5814 5814 5814 5814 5814 5814 5813 5813 5812 5811 5811 5810 5810 5810 5809 5808 5808 5808 5807 5807 5806 5806 5806 5806 5805 5805 5804 5804 5803 5803 5802 5801 5800 5799 5798 5797 5796 5795
5807 5809 5809 5810 5811 5811 5811 5811 5811 5811 5810 5810 5809 5809 5809 5808 5808 5807 5807 5806 5806 5805 5805 5805 5804 5804 5803 5803 5802 5802 5801 5800 5800 5799 5798 5798 5797 5796 5794 5793 5792 5791 5789
5804 5805 5806 5806 5807 5807 5807 5807 5807 5807 5807 5806 5806 5806 5805 5805 5805 5804 5804 5803 5803 5803 5803 5802 5802 5801 5800 5800 5799 5798 5797 5797 5796 5795 5795 5794 5792 5791 5790 5788 5787 5785 5784
5799 5800 5802 5802 5803 5803 5803 5803 5804 5803 5803 5803 5803 5802 5802 5802 5801 5801 5801 5800 5800 5800 5799 5799 5798 5798 5796 5796 5795 5794 5793 5792 5792 5791 5790 5789 5788 5786 5785 5783 5782 5780 5778
5795 5796 5797 5798 5798 5798 5799 5799 5799 5799 5799 5799 5799 5798 5798 5798 5797 5797 5797 5797 5796 5796 5795 5795 5794 5793 5792 5791 5790 5789 5788 5788 5787 5786 5785 5784 5782 5781 5779 5778 5776 5774 5772
5791 5791 5792 5793 5793 5793 5794 5794 5794 5794 5794 5794 5794 5794 5794 5794 5793 5793 5793 5792 5792 5791 5791 5790 5789 5789 5788 5786 5786 5785 5784 5783 5782 5781 5780 5778 5777 5775 5774 5772 5770 5768 5766
5785 5786 5786 5787 5788 5788 5788 5789 5789 5789 5789 5789 5789 5789 5789 5788 5788 5788 5788 5787 5787 5787 5786 5785 5784 5784 5783 5782 5781 5780 5779 5778 5776 5775 5774 5773 5771 5769 5768 5766 5764 5762 5760
5780 5780 5781 5781 5782 5782 5783 5783 5783 5783 5783 5784 5784 5783 5783 5783 5783 5783 5782 5782 5782 5781 5781 5780 5779 5778 5777 5776 5776 5775 5773 5772 5771 5769 5768 5766 5765 5763 5761 5759 5757 5756 5754
5774 5774 5775 5775 5775 5776 5776 5776 5777 5777 5777 5778 5778 5777 5777 5777 5777 5777 5777 5777 5776 5776 5775 5775 5774 5773 5772 5771 5770 5769 5768 5766 5765 5764 5762 5760 5758 5756 5754 5752 5751 5749 5747
5767 5768 5769 5769 5769 5769 5770 5770 5770 5770 5770 5771 5771 5771 5771 5771 5771 5771 5770 5770 5770 5770 5769 5768 5767 5767 5766 5765 5764 5763 5762 5760 5759 5757 5755 5754 5752 5750 5748 5746 5743 5742 5740
5761 5762 5762 5762 5763 5763 5764 5764 5764 5764 5765 5765 5765 5765 5765 5764 5764 5764 5764 5763 5763 5763 5763 5762 5761 5760 5759 5759 5758 5756 5755 5753 5752 5751 5749 5747 5745 5743 5741 5739 5737 5735 5733
5754 5755 5756 5756 5756 5757 5758 5758 5758 5758 5758 5759 5759 5759 5758 5758 5758 5758 5757 5757 5757 5756 5756 5755 5754 5753 5753 5752 5751 5749 5748 5747 5745 5744 5742 5740 5738 5736 5734 5732 5730 5728 5727
5747 5748 5749 5750 5750 5751 5751 5751 5751 5752 5752 5752 5752 5752 5752 5752 5752 5751 5751 5750 5750 5749 5749 5748 5747 5746 5745 5744 5743 5742 5741 5740 5738 5737 5735 5733 5731 5730 5727 5725 5723 5722 5720
5740 5741 5741 5742 5743 5744 5744 5744 5745 5745 5745 5745 5745 5745 5746 5745 5745 5745 5744 5744 5743 5742 5742 5741 5740 5739 5738 5737 5736 5735 5734 5732 5731 5730 5728 5726 5724 5723 5721 5718 5717 5715 5713
5733 5734 5735 5735 5736 5736 5737 5737 5738 5738 5738 5738 5738 5738 5738 5738 5738 5738 5737 5737 5736 5735 5735 5734 5733 5732 5731 5730 5729 5728 5727 5725 5724 5722 5721 5719 5717 5715 5713 5711 5709 5707 5706
5726 5727 5728 5728 5729 5730 5730 5730 5731 5731 5731 5731 5731 5731 5731 5731 5731 5731 5730 5730 5729 5729 5728 5727 5726 5725 5724 5723 5722 5721 5720 5718 5716 5715 5713 5711 5709 5708 5706 5704 5702 5700 5698
5719 5720 5721 5722 5722 5723 5723 5724 5724 5724 5724 5724 5724 5724 5724 5724 5724 5724 5723 5723 5722 5722 5721 5720 5719 5718 5717 5716 5714 5713 5712 5710 5709 5707 5706 5704 5702 5700 5699 5697 5694 5692 5690
5712 5712 5713 5714 5715 5716 5716 5716 5716 5717 5717 5717 5717 5717 5716 5716 5716 5716 5716 5716 5715 5714 5714 5713 5712 5710 5709 5708 5707 5705 5704 5703 5701 5700 5698 5696 5695 5693 5691 5689 5687 5684 5682
5705 5706 5706 5707 5708 5708 5709 5709 5709 5709 5710 5710 5710 5710 5709 5710 5710 5710 5709 5708 5708 5707 5707 5705 5704 5703 5701 5700 5699 5697 5696 5695 5693 5691 5690 5688 5687 5685 5683 5681 5678 5676 5674
5698 5699 5700 5700 5700 5701 5701 5701 5702 5702 5703 5703 5703 5703 5703 5703 5703 5703 5703 5702 5701 5701 5699 5698 5697 5696 5694 5693 5691 5690 5688 5687 5685 5683 5682 5680 5678 5676 5675 5672 5670 5668 5665
5691 5692 5693 5693 5693 5694 5694 5695 5695 5696 5696 5696 5696 5696 5696 5697 5696 5696 5696 5695 5694 5693 5692 5691 5690 5688 5687 5685 5684 5682 5681 5679 5677 5675 5673 5672 5670 5668 5666 5664 5661 5659 5657
5684 5685 5686 5686 5686 5687 5687 5687 5688 5689 5689 5689 5689 5690 5690 5689 5689 5689 5688 5687 5687 5686 5685 5683 5682 5681 5680 5678 5676 5675 5673 5671 5669 5667 5665 5663 5661 5659 5657 5655 5653 5650 5648
5678 5679 5679 5679 5679 5679 5679 5680 5680 5681 5682 5682 5682 5682 5682 5682 5682 5681 5680 5680 5679 5678 5677 5675 5674 5673 5672 5670 5668 5667 5665 5663 5661 5659 5657 5655 5653 5651 5649 5646 5644 5642 5640